SCP
0 0 0 1 3 5 7 8 9 7 7 5 5 5 3 0 0 0 0 0 0 0 0 0 0 0 0 0 0 0 0 0 0 0 0 0 0 0 0 0 0 0 0
-0 0 0 0 0 3 5 5 6 6 6 5 6 4 2 1 0 0 0 0 0 0 0 0 0 0 0 0 0 0 0 0 0 0 0 0 0 0 0 0 0 0 0
0 -0 -0 0 0 1 3 4 4 3 4 2 3 2 1 1 0 0 0 0 0 0 0 0 0 0 0 0 0 0 0 0 0 0 0 0 0 0 0 0 0 0 0
0 1 -0 -1 -0 0 2 3 2 2 4 3 2 2 2 1 0 0 0 0 0 0 0 0 0 0 0 0 0 0 0 0 0 0 0 0 0 0 0 0 0 0 0
0 0 1 0 -0 0 1 2 1 2 2 2 2 3 2 1 1 0 0 0 0 0 0 0 0 0 0 0 0 0 0 0 0 0 0 0 0 0 0 0 0 0 0
0 0 0 1 1 1 0 1 1 1 2 2 2 3 2 1 0 0 0 0 0 0 0 0 0 0 0 0 0 0 0 0 0 0 0 0 0 0 0 0 0 0 0
0 0 0 1 1 0 1 2 1 1 2 2 3 2 2 2 0 0 0 0 0 0 0 0 0 0 0 0 0 0 0 0 0 0 0 0 0 0 0 0 0 0 0
0 0 0 0 0 1 1 2 2 3 3 3 3 3 2 2 0 0 0 0 0 0 0 0 0 0 0 0 0 0 0 0 0 0 0 0 0 0 0 0 0 0 0
0 0 0 0 0 0 0 1 2 2 3 2 2 2 1 1 0 0 0 0 0 0 0 0 0 0 0 0 0 0 0 0 0 0 0 0 0 0 0 0 0 0 0
0 0 0 0 0 0 0 1 2 2 1 1 1 1 1 0 0 0 0 0 0 0 0 0 0 0 0 0 0 0 0 0 0 0 0 0 0 0 0 -0 -0 -0 0
0 0 0 0 0 0 0 1 1 1 1 0 0 0 0 0 0 0 0 0 0 0 0 0 0 0 0 0 0 0 0 0 0 0 0 0 0 0 0 0 -0 -0 -0
0 0 0 0 0 0 0 0 1 1 0 0 0 0 0 0 0 0 0 0 0 0 0 0 0 0 0 0 0 0 0 0 0 0 0 0 0 0 0 0 0 -0 0
0 0 0 0 0 0 0 0 1 1 0 0 0 0 0 0 0 0 0 0 0 0 0 0 0 0 0 0 0 0 0 0 0 0 0 0 0 0 0 0 0 0 0
0 0 0 0 0 0 0 0 0 0 0 0 0 0 0 0 0 0 0 0 0 0 0 0 0 0 0 0 0 0 0 0 0 0 0 0 0 0 0 0 0 0 0
0 0 0 0 -0 0 0 0 0 0 0 0 0 0 0 0 0 0 0 0 0 0 0 0 0 0 0 0 0 0 0 0 0 0 0 0 0 0 0 0 0 0 0
0 0 0 0 -0 0 0 0 0 0 0 0 0 0 0 0 0 0 0 0 0 0 0 0 0 0 0 0 0 0 0 0 0 0 0 0 0 0 0 0 0 0 -0
0 0 0 0 0 -0 -0 -0 0 0 0 0 0 0 0 0 0 0 0 0 0 0 0 0 0 0 0 0 0 0 0 0 0 0 0 0 0 0 0 0 0 0 0
0 0 0 -0 -0 -0 -0 -0 0 0 0 0 0 0 0 0 0 0 0 0 0 0 0 0 0 0 0 0 0 0 0 0 0 0 0 0 0 0 0 0 0 0 0
0 0 -0 -0 -0 -0 -0 -0 0 0 0 0 0 0 0 0 0 0 0 0 0 0 0 0 0 0 0 0 0 0 0 0 0 0 0 0 0 0 0 0 0 0 0
0 0 0 -0 -0 -0 -0 0 0 0 0 0 0 0 0 0 0 0 0 0 0 0 0 0 0 0 0 0 0 0 0 0 0 0 0 0 0 0 0 0 0 0 0
0 0 0 -0 -0 -0 -0 0 0 0 0 0 0 0 0 0 0 0 0 0 0 0 0 0 0 0 0 0 0 0 0 0 0 0 0 0 0 0 0 0 0 0 0
-0 0 0 0 -0 -0 0 0 0 0 0 0 0 0 0 0 0 0 0 0 0 0 0 0 0 0 0 0 0 0 0 0 0 0 0 0 0 0 0 0 0 0 0
0 0 -0 0 0 0 0 0 0 0 0 0 0 0 0 0 0 0 0 0 0 0 0 0 0 0 0 0 0 0 0 0 0 0 0 0 0 0 0 0 0 0 0
0 0 0 -0 -0 -0 0 0 0 0 0 0 0 0 0 0 0 0 0 0 0 0 0 0 0 0 0 0 0 0 0 0 0 0 0 0 0 0 0 0 0 0 0
0 0 0 0 -0 0 0 -0 -0 -0 0 0 0 0 0 0 0 0 0 0 0 0 0 0 0 0 0 0 0 0 0 0 0 0 0 0 0 0 0 0 0 0 0
0 0 0 0 0 -0 -0 -0 0 0 -0 -0 -0 -0 0 0 0 0 0 0 0 0 0 0 0 0 -0 0 0 0 0 0 0 0 0 0 0 0 0 0 0 0 0
Wind_Speed_500mb
29 42 58 74 80 85 95 92 97 93 106 109 113 102 101 95 87 70 67 73 76 75 65 61 56 46 32 30 26 27 24 26 25 19 23 22 17 14 10 6 4 1 17
33 35 41 50 56 71 78 81 84 93 93 106 95 106 106 98 94 81 71 74 79 74 69 59 55 52 45 43 31 26 25 29 27 30 26 21 18 14 11 6 5 7 3
39 34 38 40 46 61 65 70 76 76 82 74 83 103 104 100 96 90 77 73 71 72 72 67 61 61 59 48 33 28 29 27 29 30 28 23 18 13 8 4 3 7 7
49 40 36 40 42 46 57 66 69 70 76 76 81 92 99 101 90 89 85 90 81 77 76 73 69 69 61 52 39 37 33 32 31 33 29 26 19 15 12 8 4 4 8
54 47 42 37 47 51 53 62 58 68 78 78 77 88 96 99 96 101 89 94 95 92 82 76 78 67 60 52 47 46 42 36 32 34 31 28 23 18 14 12 7 6 11
57 53 47 42 44 51 55 56 64 69 72 77 85 88 97 100 99 104 90 94 92 84 78 77 74 69 62 53 48 40 38 41 37 36 32 31 28 24 18 9 6 4 5
58 55 50 42 42 48 55 58 61 65 71 81 90 91 100 101 97 96 91 89 90 71 81 76 71 73 67 60 52 47 44 44 40 38 32 32 31 25 18 13 6 4 6
56 55 53 51 45 38 50 58 61 58 71 83 91 98 103 102 96 92 93 90 86 85 80 78 83 80 75 66 63 59 55 50 48 36 31 29 26 25 20 13 10 3 9
59 52 54 55 52 47 49 61 61 70 64 79 91 97 102 103 97 94 95 99 88 84 85 80 87 86 79 73 64 57 52 49 44 44 40 41 38 33 25 14 6 5 7
59 55 60 57 51 53 50 56 71 66 66 77 89 95 100 102 99 99 94 101 93 86 85 86 91 91 93 72 62 66 60 51 49 56 49 39 35 30 26 23 10 7 9
56 58 58 58 48 52 51 49 63 77 72 75 82 92 98 97 101 104 94 98 89 80 93 98 95 99 84 67 62 64 59 54 49 45 38 35 32 27 22 21 14 11 11
55 54 54 54 59 45 54 54 56 74 77 84 83 88 100 98 96 102 94 92 97 97 116 115 102 107 83 73 58 65 63 53 50 45 39 38 34 30 25 22 18 15 13
55 55 54 53 58 54 64 58 54 65 79 88 84 85 94 103 100 100 97 79 85 109 98 101 85 100 78 72 72 60 64 57 51 49 45 41 36 30 28 24 19 16 10
57 55 53 54 55 60 58 54 48 60 81 89 90 89 100 104 106 105 100 105 95 89 90 95 91 91 87 79 78 66 61 58 54 50 45 40 37 35 31 22 19 15 8
57 54 52 48 45 59 57 54 44 52 76 81 100 92 100 114 115 113 103 111 104 100 104 98 106 99 91 86 86 71 63 59 56 49 47 44 41 35 29 26 22 19 13
55 51 50 51 46 54 55 54 45 40 52 66 80 92 98 102 99 118 111 113 110 114 106 104 113 109 104 91 88 77 72 64 58 53 50 46 42 36 31 28 23 20 16
50 47 52 45 44 52 52 54 54 45 41 44 52 68 82 98 95 103 116 119 111 111 100 118 120 114 97 82 78 79 76 66 59 55 51 47 42 35 35 30 25 22 17
47 45 43 39 37 39 46 50 51 46 34 34 42 37 52 58 57 70 94 108 99 100 102 120 118 116 106 82 78 79 73 63 61 56 52 47 41 36 34 32 27 24 18
40 40 34 32 35 41 53 59 40 36 33 29 24 31 38 44 53 60 77 111 111 105 100 102 106 111 84 78 78 74 70 65 63 57 52 47 42 37 33 29 27 27 23
35 35 36 29 27 34 35 36 27 30 27 28 30 30 37 30 59 93 103 104 103 101 102 103 100 90 77 74 72 71 68 63 63 57 51 46 41 37 34 30 29 27 25
32 24 20 19 24 25 25 33 27 23 22 21 29 38 40 50 68 98 105 101 106 107 104 99 99 79 69 71 67 67 62 63 61 57 51 46 41 38 36 33 30 28 26
22 26 28 24 19 22 19 18 20 17 13 16 21 29 37 56 73 84 90 98 102 99 93 91 88 70 64 62 64 62 62 62 59 57 51 45 41 38 36 34 32 31 29
24 24 26 19 15 14 13 14 13 7 6 8 12 33 46 46 67 69 78 87 94 91 80 83 88 66 60 55 52 56 61 60 57 53 49 44 42 40 37 36 32 30 29
21 22 22 27 24 22 22 19 15 12 6 12 22 42 48 51 60 57 67 73 71 72 70 74 79 72 55 53 52 51 53 54 52 50 49 45 43 42 39 38 35 34 33
37 27 25 26 26 30 33 29 27 26 25 24 25 29 30 30 41 44 41 44 44 49 54 60 55 45 44 47 46 47 47 56 52 50 47 45 43 41 41 42 38 38 39
37 38 35 29 26 23 23 23 26 31 36 38 41 42 41 40 36 34 37 40 49 49 43 44 43 43 45 46 45 42 47 55 64 59 50 44 45 45 44 45 41 41 43
Wind_Direction_500mb
286 257 252 247 247 247 241 228 225 228 232 241 237 231 225 229 231 229 219 225 220 222 220 223 214 213 200 200 196 198 200 210 214 197 198 206 201 196 217 251 315 122 301
312 282 262 255 247 241 237 228 227 225 232 247 241 228 225 228 232 227 222 215 218 218 219 219 215 216 211 211 207 192 196 202 194 188 186 201 193 208 212 222 200 229 218
345 306 279 264 251 243 238 231 227 226 227 225 231 229 225 226 231 231 222 207 211 215 219 219 217 219 222 217 203 197 198 189 183 180 190 186 194 197 233 187 206 252 332
339 335 299 275 257 246 242 234 231 228 227 225 223 226 226 228 228 229 216 213 214 213 217 220 217 224 220 219 202 198 185 180 178 182 180 181 179 198 174 198 251 286 296
335 331 325 296 275 258 244 239 239 231 227 226 218 222 226 228 227 229 219 219 219 216 214 214 220 220 217 218 212 201 193 172 187 183 178 176 180 179 170 194 202 284 299
329 329 326 313 294 270 252 243 237 235 233 224 222 219 224 225 228 233 222 218 213 215 210 215 217 212 216 212 208 201 198 177 182 188 181 179 179 176 180 180 202 281 321
322 321 323 320 304 289 271 251 240 234 236 228 223 225 227 227 230 233 221 221 217 206 218 220 213 212 208 203 201 191 195 194 188 187 185 178 179 174 180 175 203 238 288
316 316 314 316 304 283 279 270 254 249 241 232 225 226 230 229 231 232 218 217 218 219 220 220 223 218 207 206 194 196 194 191 194 182 184 180 173 175 173 182 200 265 287
310 311 311 311 307 298 273 270 268 245 246 240 233 225 227 228 228 228 214 212 217 220 221 221 222 218 206 197 199 193 184 191 196 177 182 184 186 179 178 184 223 275 295
305 304 314 314 303 297 288 273 265 267 258 243 231 226 225 228 228 226 217 210 208 212 222 219 219 218 210 206 196 188 182 191 193 186 188 187 187 187 187 180 193 259 289
299 301 309 315 307 302 291 275 268 264 263 253 239 233 227 231 229 222 204 209 208 212 218 219 215 212 209 205 196 195 181 187 185 185 182 184 188 194 194 197 208 214 271
298 297 298 307 316 306 300 284 266 261 263 249 235 226 225 228 227 217 201 200 217 205 209 209 216 211 201 201 198 178 188 184 183 182 181 185 190 195 196 205 203 219 240
299 295 294 298 307 311 311 298 272 259 252 239 233 229 230 223 222 219 203 206 210 210 217 215 214 204 196 193 178 181 186 183 185 183 183 188 191 190 192 191 206 227 225
294 295 293 294 301 307 315 308 277 261 249 238 237 230 222 220 219 211 205 209 212 214 215 214 210 189 191 183 174 189 189 185 187 184 185 187 184 190 191 193 202 227 240
289 293 290 291 295 306 312 316 312 259 251 244 237 235 230 223 225 214 206 208 209 211 205 201 179 180 179 174 183 189 187 187 186 186 186 185 190 188 189 195 196 210 229
286 291 289 286 293 301 306 308 306 293 256 232 223 230 235 235 237 213 213 210 207 206 199 184 181 181 179 175 185 186 182 188 186 185 187 187 188 187 188 195 197 214 229
277 287 291 280 287 299 303 303 305 300 275 259 248 241 234 229 221 216 205 202 205 199 193 179 178 177 173 176 178 182 182 188 183 186 188 187 189 188 190 198 200 212 226
275 284 288 277 283 304 315 306 289 296 286 267 239 233 239 236 239 222 207 193 178 183 190 183 178 177 177 177 181 181 183 184 182 188 188 189 188 189 199 202 206 215 226
283 286 284 278 288 301 307 303 282 281 270 257 236 220 224 221 217 216 209 193 181 188 188 181 182 178 172 180 181 181 183 184 184 187 188 189 189 192 201 207 213 217 220
287 295 287 274 293 322 309 306 287 282 268 245 217 211 202 189 186 183 178 180 183 186 187 181 174 172 175 179 180 182 184 185 187 188 190 193 194 198 208 211 217 222 221
299 308 315 291 290 306 302 311 301 294 283 248 233 212 202 191 187 181 184 190 191 187 182 181 177 171 179 180 181 183 186 188 191 191 193 196 200 205 211 215 221 227 226
33 18 358 333 332 331 313 303 301 309 293 259 236 201 191 190 184 176 184 185 187 189 190 187 171 176 177 179 184 186 189 190 192 193 196 199 203 206 209 214 222 227 225
5 360 1 20 21 37 21 2 340 318 305 261 194 171 180 188 176 183 184 184 188 189 189 189 178 172 181 183 189 193 194 195 196 196 198 203 203 207 211 217 219 222 225
23 56 25 26 34 41 42 38 39 44 70 133 145 168 174 173 175 178 182 186 189 190 191 184 188 185 184 195 194 199 198 200 200 201 203 206 209 212 215 219 222 230 239
43 40 42 40 48 59 62 60 62 67 84 115 123 144 151 164 179 183 178 182 181 182 181 186 177 186 189 189 190 194 201 199 200 204 207 210 212 216 222 224 226 235 244
38 43 43 48 59 69 71 72 78 91 97 103 111 114 117 120 128 145 150 154 158 169 173 177 184 187 191 197 200 204 204 206 203 203 206 214 218 221 223 227 232 237 245
Wind_Speed_850mb
29 42 58 74 80 85 95 92 97 93 106 109 113 102 101 95 87 70 67 73 76 75 65 61 56 46 32 30 26 27 24 26 25 19 23 22 17 14 10 6 4 1 17
33 35 41 50 56 71 78 81 84 93 93 106 95 106 106 98 94 81 71 74 79 74 69 59 55 52 45 43 31 26 25 29 27 30 26 21 18 14 11 6 5 7 3
39 34 38 40 46 61 65 70 76 76 82 74 83 103 104 100 96 90 77 73 71 72 72 67 61 61 59 48 33 28 29 27 29 30 28 23 18 13 8 4 3 7 7
49 40 36 40 42 46 57 66 69 70 76 76 81 92 99 101 90 89 85 90 81 77 76 73 69 69 61 52 39 37 33 32 31 33 29 26 19 15 12 8 4 4 8
54 47 42 37 47 51 53 62 58 68 78 78 77 88 96 99 96 101 89 94 95 92 82 76 78 67 60 52 47 46 42 36 32 34 31 28 23 18 14 12 7 6 11
57 53 47 42 44 51 55 56 64 69 72 77 85 88 97 100 99 104 90 94 92 84 78 77 74 69 62 53 48 40 38 41 37 36 32 31 28 24 18 9 6 4 5
58 55 50 42 42 48 55 58 61 65 71 81 90 91 100 101 97 96 91 89 90 71 81 76 71 73 67 60 52 47 44 44 40 38 32 32 31 25 18 13 6 4 6
56 55 53 51 45 38 50 58 61 58 71 83 91 98 103 102 96 92 93 90 86 85 80 78 83 80 75 66 63 59 55 50 48 36 31 29 26 25 20 13 10 3 9
59 52 54 55 52 47 49 61 61 70 64 79 91 97 102 103 97 94 95 99 88 84 85 80 87 86 79 73 64 57 52 49 44 44 40 41 38 33 25 14 6 5 7
59 55 60 57 51 53 50 56 71 66 66 77 89 95 100 102 99 99 94 101 93 86 85 86 91 91 93 72 62 66 60 51 49 56 49 39 35 30 26 23 10 7 9
56 58 58 58 48 52 51 49 63 77 72 75 82 92 98 97 101 104 94 98 89 80 93 98 95 99 84 67 62 64 59 54 49 45 38 35 32 27 22 21 14 11 11
55 54 54 54 59 45 54 54 56 74 77 84 83 88 100 98 96 102 94 92 97 97 116 115 102 107 83 73 58 65 63 53 50 45 39 38 34 30 25 22 18 15 13
55 55 54 53 58 54 64 58 54 65 79 88 84 85 94 103 100 100 97 79 85 109 98 101 85 100 78 72 72 60 64 57 51 49 45 41 36 30 28 24 19 16 10
57 55 53 54 55 60 58 54 48 60 81 89 90 89 100 104 106 105 100 105 95 89 90 95 91 91 87 79 78 66 61 58 54 50 45 40 37 35 31 22 19 15 8
57 54 52 48 45 59 57 54 44 52 76 81 100 92 100 114 115 113 103 111 104 100 104 98 106 99 91 86 86 71 63 59 56 49 47 44 41 35 29 26 22 19 13
55 51 50 51 46 54 55 54 45 40 52 66 80 92 98 102 99 118 111 113 110 114 106 104 113 109 104 91 88 77 72 64 58 53 50 46 42 36 31 28 23 20 16
50 47 52 45 44 52 52 54 54 45 41 44 52 68 82 98 95 103 116 119 111 111 100 118 120 114 97 82 78 79 76 66 59 55 51 47 42 35 35 30 25 22 17
47 45 43 39 37 39 46 50 51 46 34 34 42 37 52 58 57 70 94 108 99 100 102 120 118 116 106 82 78 79 73 63 61 56 52 47 41 36 34 32 27 24 18
40 40 34 32 35 41 53 59 40 36 33 29 24 31 38 44 53 60 77 111 111 105 100 102 106 111 84 78 78 74 70 65 63 57 52 47 42 37 33 29 27 27 23
35 35 36 29 27 34 35 36 27 30 27 28 30 30 37 30 59 93 103 104 103 101 102 103 100 90 77 74 72 71 68 63 63 57 51 46 41 37 34 30 29 27 25
32 24 20 19 24 25 25 33 27 23 22 21 29 38 40 50 68 98 105 101 106 107 104 99 99 79 69 71 67 67 62 63 61 57 51 46 41 38 36 33 30 28 26
22 26 28 24 19 22 19 18 20 17 13 16 21 29 37 56 73 84 90 98 102 99 93 91 88 70 64 62 64 62 62 62 59 57 51 45 41 38 36 34 32 31 29
24 24 26 19 15 14 13 14 13 7 6 8 12 33 46 46 67 69 78 87 94 91 80 83 88 66 60 55 52 56 61 60 57 53 49 44 42 40 37 36 32 30 29
21 22 22 27 24 22 22 19 15 12 6 12 22 42 48 51 60 57 67 73 71 72 70 74 79 72 55 53 52 51 53 54 52 50 49 45 43 42 39 38 35 34 33
37 27 25 26 26 30 33 29 27 26 25 24 25 29 30 30 41 44 41 44 44 49 54 60 55 45 44 47 46 47 47 56 52 50 47 45 43 41 41 42 38 38 39
37 38 35 29 26 23 23 23 26 31 36 38 41 42 41 40 36 34 37 40 49 49 43 44 43 43 45 46 45 42 47 55 64 59 50 44 45 45 44 45 41 41 43
Wind_Direction_850mb
286 257 252 247 247 247 241 228 225 228 232 241 237 231 225 229 231 229 219 225 220 222 220 223 214 213 200 200 196 198 200 210 214 197 198 206 201 196 217 251 315 122 301
312 282 262 255 247 241 237 228 227 225 232 247 241 228 225 228 232 227 222 215 218 218 219 219 215 216 211 211 207 192 196 202 194 188 186 201 193 208 212 222 200 229 218
345 306 279 264 251 243 238 231 227 226 227 225 231 229 225 226 231 231 222 207 211 215 219 219 217 219 222 217 203 197 198 189 183 180 190 186 194 197 233 187 206 252 332
339 335 299 275 257 246 242 234 231 228 227 225 223 226 226 228 228 229 216 213 214 213 217 220 217 224 220 219 202 198 185 180 178 182 180 181 179 198 174 198 251 286 296
335 331 325 296 275 258 244 239 239 231 227 226 218 222 226 228 227 229 219 219 219 216 214 214 220 220 217 218 212 201 193 172 187 183 178 176 180 179 170 194 202 284 299
329 329 326 313 294 270 252 243 237 235 233 224 222 219 224 225 228 233 222 218 213 215 210 215 217 212 216 212 208 201 198 177 182 188 181 179 179 176 180 180 202 281 321
322 321 323 320 304 289 271 251 240 234 236 228 223 225 227 227 230 233 221 221 217 206 218 220 213 212 208 203 201 191 195 194 188 187 185 178 179 174 180 175 203 238 288
316 316 314 316 304 283 279 270 254 249 241 232 225 226 230 229 231 232 218 217 218 219 220 220 223 218 207 206 194 196 194 191 194 182 184 180 173 175 173 182 200 265 287
310 311 311 311 307 298 273 270 268 245 246 240 233 225 227 228 228 228 214 212 217 220 221 221 222 218 206 197 199 193 184 191 196 177 182 184 186 179 178 184 223 275 295
305 304 314 314 303 297 288 273 265 267 258 243 231 226 225 228 228 226 217 210 208 212 222 219 219 218 210 206 196 188 182 191 193 186 188 187 187 187 187 180 193 259 289
299 301 309 315 307 302 291 275 268 264 263 253 239 233 227 231 229 222 204 209 208 212 218 219 215 212 209 205 196 195 181 187 185 185 182 184 188 194 194 197 208 214 271
298 297 298 307 316 306 300 284 266 261 263 249 235 226 225 228 227 217 201 200 217 205 209 209 216 211 201 201 198 178 188 184 183 182 181 185 190 195 196 205 203 219 240
299 295 294 298 307 311 311 298 272 259 252 239 233 229 230 223 222 219 203 206 210 210 217 215 214 204 196 193 178 181 186 183 185 183 183 188 191 190 192 191 206 227 225
294 295 293 294 301 307 315 308 277 261 249 238 237 230 222 220 219 211 205 209 212 214 215 214 210 189 191 183 174 189 189 185 187 184 185 187 184 190 191 193 202 227 240
289 293 290 291 295 306 312 316 312 259 251 244 237 235 230 223 225 214 206 208 209 211 205 201 179 180 179 174 183 189 187 187 186 186 186 185 190 188 189 195 196 210 229
286 291 289 286 293 301 306 308 306 293 256 232 223 230 235 235 237 213 213 210 207 206 199 184 181 181 179 175 185 186 182 188 186 185 187 187 188 187 188 195 197 214 229
277 287 291 280 287 299 303 303 305 300 275 259 248 241 234 229 221 216 205 202 205 199 193 179 178 177 173 176 178 182 182 188 183 186 188 187 189 188 190 198 200 212 226
275 284 288 277 283 304 315 306 289 296 286 267 239 233 239 236 239 222 207 193 178 183 190 183 178 177 177 177 181 181 183 184 182 188 188 189 188 189 199 202 206 215 226
283 286 284 278 288 301 307 303 282 281 270 257 236 220 224 221 217 216 209 193 181 188 188 181 182 178 172 180 181 181 183 184 184 187 188 189 189 192 201 207 213 217 220
287 295 287 274 293 322 309 306 287 282 268 245 217 211 202 189 186 183 178 180 183 186 187 181 174 172 175 179 180 182 184 185 187 188 190 193 194 198 208 211 217 222 221
299 308 315 291 290 306 302 311 301 294 283 248 233 212 202 191 187 181 184 190 191 187 182 181 177 171 179 180 181 183 186 188 191 191 193 196 200 205 211 215 221 227 226
33 18 358 333 332 331 313 303 301 309 293 259 236 201 191 190 184 176 184 185 187 189 190 187 171 176 177 179 184 186 189 190 192 193 196 199 203 206 209 214 222 227 225
5 360 1 20 21 37 21 2 340 318 305 261 194 171 180 188 176 183 184 184 188 189 189 189 178 172 181 183 189 193 194 195 196 196 198 203 203 207 211 217 219 222 225
23 56 25 26 34 41 42 38 39 44 70 133 145 168 174 173 175 178 182 186 189 190 191 184 188 185 184 195 194 199 198 200 200 201 203 206 209 212 215 219 222 230 239
43 40 42 40 48 59 62 60 62 67 84 115 123 144 151 164 179 183 178 182 181 182 181 186 177 186 189 189 190 194 201 199 200 204 207 210 212 216 222 224 226 235 244
38 43 43 48 59 69 71 72 78 91 97 103 111 114 117 120 128 145 150 154 158 169 173 177 184 187 191 197 200 204 204 206 203 203 206 214 218 221 223 227 232 237 245